Darstellungsparameter: Aktuell verwendete Einstellungen:
Skalierung der Graphiken ... ?
xyx+y,   Skalierungsfaktor:      Skalierung: Modus: x, Faktor: 1
Darstellungszeitraum ... ?
Vom - - bis: - -   Zeitraum: 23.04.2020 - 24.04.2020
Min/Max/Avg-Anzeige ... ?
Zeige MMA aktuell
Zeige MMA Monat
Zeige MMA alles
Zeige --A aktuell
Zeige --A Monat
Zeige --A alles
Keine MMA-Anzeige
MMA:
Keine MMA-Graphiken
MMA-Basis: 23.04.2020 - 24.04.2020
Quicknavigation für Darstellung... ?
Tage:      1T, 2T, 3T, 5T -1T -2T -3T -5T +1T +2T +3T +5T
Wochen: 1W, 2W, 3W -1W -2W -3W +1W +2W +3W
Monate: 1M, 3M, 6M -1M -3M -6M +1M +3M +6M
Jahre:    1J, 3J, 5J, 10J -1J -3J -5J -10J +1J +3J +5J +10J
Nutze für die Darstellung ... ?
Originaldaten oder Mittelwerte auf ...
Stundenbasis Tagesbasis Wochenbasis
Monatsbasis Jahresbasis      Datenbasis: Original-Daten
Darstellen als:
Statistik (Auto) Statistik J:M      Darstellung:
Zur Graphik,    zurück zur Übersicht aller Sensoren.
 
Tabellarische Datenbersicht: ?
 
Sensor: Nr:Datum:Temp:Feuchte:Taupunkt:
Aussen-T/F 1 23-04-2020 00:00:00 13.1 C 53 % 3.75 C
2 23-04-2020 00:05:00 13 C 55 % 4.18 C
3 23-04-2020 00:10:00 12.9 C 55 % 4.09 C
4 23-04-2020 00:15:00 12.9 C 54 % 3.83 C
5 23-04-2020 00:20:00 12.8 C 54 % 3.74 C
6 23-04-2020 00:25:00 12.8 C 54 % 3.74 C
7 23-04-2020 00:30:00 12.8 C 55 % 4 C
8 23-04-2020 00:35:00 12.8 C 55 % 4 C
9 23-04-2020 00:40:00 12.9 C 55 % 4.09 C
10 23-04-2020 00:45:00 12.8 C 55 % 4 C
11 23-04-2020 00:50:00 12.7 C 54 % 3.64 C
12 23-04-2020 00:55:00 12.7 C 55 % 3.9 C
13 23-04-2020 01:00:00 12.6 C 56 % 4.07 C
14 23-04-2020 01:05:00 12.6 C 55 % 3.81 C
15 23-04-2020 01:10:00 12.6 C 56 % 4.07 C
16 23-04-2020 01:15:00 12.4 C 56 % 3.88 C
17 23-04-2020 01:20:00 12.2 C 57 % 3.94 C
18 23-04-2020 01:25:00 12.1 C 56 % 3.6 C
19 23-04-2020 01:30:00 12.1 C 56 % 3.6 C
20 23-04-2020 01:35:00 12.2 C 58 % 4.19 C
21 23-04-2020 01:40:00 11.9 C 58 % 3.91 C
22 23-04-2020 01:45:00 11.7 C 59 % 3.97 C
23 23-04-2020 01:50:00 11.4 C 60 % 3.92 C
24 23-04-2020 01:55:00 11.2 C 61 % 3.97 C
25 23-04-2020 02:00:00 11 C 62 % 4.01 C
Sensor: Nr:Datum:Temp:Feuchte:Taupunkt:
Aussen-T/F 26 23-04-2020 02:05:00 10.7 C 62 % 3.73 C
27 23-04-2020 02:10:00 10.5 C 63 % 3.77 C
28 23-04-2020 02:15:00 10.3 C 64 % 3.8 C
29 23-04-2020 02:20:00 10.2 C 65 % 3.92 C
30 23-04-2020 02:25:00 10.2 C 65 % 3.92 C
31 23-04-2020 02:30:00 10.3 C 64 % 3.8 C
32 23-04-2020 02:35:00 10.4 C 64 % 3.89 C
33 23-04-2020 02:40:00 10.4 C 64 % 3.89 C
34 23-04-2020 02:45:00 10.3 C 65 % 4.02 C
35 23-04-2020 02:50:00 10.1 C 65 % 3.83 C
36 23-04-2020 02:55:00 9.9 C 65 % 3.64 C
37 23-04-2020 03:00:00 9.9 C 66 % 3.86 C
38 23-04-2020 03:05:00 9.8 C 66 % 3.76 C
39 23-04-2020 03:10:00 9.7 C 67 % 3.88 C
40 23-04-2020 03:15:00 9.7 C 67 % 3.88 C
41 23-04-2020 03:20:00 9.6 C 67 % 3.78 C
42 23-04-2020 03:25:00 9.5 C 67 % 3.69 C
43 23-04-2020 03:30:00 9.4 C 68 % 3.8 C
44 23-04-2020 03:35:00 9.4 C 68 % 3.8 C
45 23-04-2020 03:40:00 9.3 C 68 % 3.71 C
46 23-04-2020 03:45:00 9.3 C 68 % 3.71 C
47 23-04-2020 03:50:00 9.3 C 67 % 3.5 C
48 23-04-2020 03:55:00 9.3 C 68 % 3.71 C
49 23-04-2020 04:00:00 9.2 C 68 % 3.61 C
50 23-04-2020 04:05:00 9.1 C 68 % 3.52 C
Sensor: Nr:Datum:Temp:Feuchte:Taupunkt:
Aussen-T/F 51 23-04-2020 04:10:00 8.9 C 69 % 3.53 C
52 23-04-2020 04:15:00 8.8 C 69 % 3.44 C
53 23-04-2020 04:20:00 8.6 C 70 % 3.45 C
54 23-04-2020 04:25:00 8.4 C 71 % 3.46 C
55 23-04-2020 04:30:00 8.3 C 72 % 3.56 C
56 23-04-2020 04:35:00 8.1 C 73 % 3.56 C
57 23-04-2020 04:40:00 7.9 C 73 % 3.37 C
58 23-04-2020 04:45:00 7.8 C 74 % 3.46 C
59 23-04-2020 04:50:00 7.8 C 74 % 3.46 C
60 23-04-2020 04:55:00 7.8 C 75 % 3.65 C
61 23-04-2020 05:00:00 7.6 C 75 % 3.46 C
62 23-04-2020 05:05:00 7.4 C 75 % 3.27 C
63 23-04-2020 05:10:00 7.3 C 76 % 3.36 C
64 23-04-2020 05:15:00 7.2 C 76 % 3.26 C
65 23-04-2020 05:20:00 7.1 C 77 % 3.35 C
66 23-04-2020 05:25:00 6.9 C 77 % 3.16 C
67 23-04-2020 05:30:00 6.8 C 78 % 3.24 C
68 23-04-2020 05:35:00 6.7 C 78 % 3.14 C
69 23-04-2020 05:40:00 6.7 C 78 % 3.14 C
70 23-04-2020 05:45:00 6.7 C 78 % 3.14 C
71 23-04-2020 05:50:00 6.7 C 79 % 3.32 C
72 23-04-2020 05:55:00 6.6 C 79 % 3.23 C
73 23-04-2020 06:00:00 6.6 C 79 % 3.23 C
74 23-04-2020 06:05:00 6.5 C 79 % 3.13 C
75 23-04-2020 06:10:00 6.5 C 79 % 3.13 C
Sensor: Nr:Datum:Temp:Feuchte:Taupunkt:
Aussen-T/F 76 23-04-2020 06:15:00 6.4 C 79 % 3.03 C
77 23-04-2020 06:20:00 6.3 C 79 % 2.93 C
78 23-04-2020 06:25:00 6.3 C 80 % 3.11 C
79 23-04-2020 06:30:00 6.2 C 80 % 3.01 C
80 23-04-2020 06:35:00 6.2 C 80 % 3.01 C
81 23-04-2020 06:40:00 6.2 C 80 % 3.01 C
82 23-04-2020 06:45:00 6.2 C 80 % 3.01 C
83 23-04-2020 06:50:00 6.1 C 81 % 3.09 C
84 23-04-2020 06:55:00 6.1 C 81 % 3.09 C
85 23-04-2020 07:00:00 6.1 C 81 % 3.09 C
86 23-04-2020 07:05:00 6.1 C 82 % 3.26 C
87 23-04-2020 07:10:00 6.1 C 82 % 3.26 C
88 23-04-2020 07:15:00 6 C 82 % 3.17 C
89 23-04-2020 07:20:00 5.9 C 83 % 3.24 C
90 23-04-2020 07:25:00 5.9 C 84 % 3.41 C
91 23-04-2020 07:30:00 5.9 C 84 % 3.41 C
92 23-04-2020 07:35:00 5.9 C 85 % 3.58 C
93 23-04-2020 07:40:00 5.9 C 85 % 3.58 C
94 23-04-2020 07:45:00 5.9 C 85 % 3.58 C
95 23-04-2020 07:50:00 5.9 C 85 % 3.58 C
96 23-04-2020 07:55:00 5.9 C 86 % 3.74 C
97 23-04-2020 08:00:00 5.9 C 86 % 3.74 C
98 23-04-2020 08:05:00 5.9 C 86 % 3.74 C
99 23-04-2020 08:10:00 5.9 C 86 % 3.74 C
100 23-04-2020 08:15:00 6 C 87 % 4 C
Sensor: Nr:Datum:Temp:Feuchte:Taupunkt:
Aussen-T/F 101 23-04-2020 08:20:00 6.1 C 87 % 4.1 C
102 23-04-2020 08:25:00 6.2 C 87 % 4.2 C
103 23-04-2020 08:30:00 6.2 C 87 % 4.2 C
104 23-04-2020 08:35:00 6.3 C 87 % 4.3 C
105 23-04-2020 08:40:00 6.4 C 87 % 4.4 C
106 23-04-2020 08:45:00 6.6 C 87 % 4.6 C
107 23-04-2020 08:50:00 6.8 C 87 % 4.79 C
108 23-04-2020 08:55:00 6.9 C 87 % 4.89 C
109 23-04-2020 09:00:00 7.1 C 86 % 4.92 C
110 23-04-2020 09:05:00 7.3 C 86 % 5.12 C
111 23-04-2020 09:10:00 7.5 C 86 % 5.31 C
112 23-04-2020 09:15:00 7.8 C 85 % 5.44 C
113 23-04-2020 09:20:00 8 C 84 % 5.47 C
114 23-04-2020 09:25:00 8.2 C 83 % 5.49 C
115 23-04-2020 09:30:00 8.5 C 83 % 5.78 C
116 23-04-2020 09:35:00 8.7 C 82 % 5.8 C
117 23-04-2020 09:40:00 8.9 C 82 % 6 C
118 23-04-2020 09:45:00 9.2 C 80 % 5.94 C
119 23-04-2020 09:50:00 9.4 C 80 % 6.13 C
120 23-04-2020 09:55:00 9.6 C 79 % 6.14 C
121 23-04-2020 10:00:00 9.9 C 78 % 6.25 C
122 23-04-2020 10:05:00 10.2 C 78 % 6.54 C
123 23-04-2020 10:10:00 10.4 C 77 % 6.55 C
124 23-04-2020 10:15:00 10.6 C 76 % 6.55 C
125 23-04-2020 10:20:00 11 C 72 % 6.15 C
Sensor: Nr:Datum:Temp:Feuchte:Taupunkt:
Aussen-T/F 126 23-04-2020 10:25:00 11.4 C 71 % 6.34 C
127 23-04-2020 10:30:00 11.8 C 70 % 6.51 C
128 23-04-2020 10:35:00 12.1 C 70 % 6.8 C
129 23-04-2020 10:40:00 12.4 C 70 % 7.09 C
130 23-04-2020 10:45:00 12.7 C 64 % 6.07 C
131 23-04-2020 10:50:00 13.1 C 64 % 6.45 C
132 23-04-2020 10:55:00 13.8 C 58 % 5.69 C
133 23-04-2020 11:00:00 14.9 C 54 % 5.69 C
134 23-04-2020 11:05:00 15.3 C 59 % 7.34 C
135 23-04-2020 11:10:00 15.6 C 53 % 6.06 C
136 23-04-2020 11:15:00 15.8 C 51 % 5.69 C
137 23-04-2020 11:20:00 16.2 C 49 % 5.49 C
138 23-04-2020 11:25:00 16.4 C 47 % 5.07 C
139 23-04-2020 11:30:00 16.8 C 46 % 5.13 C
140 23-04-2020 11:35:00 16.9 C 52 % 6.99 C
141 23-04-2020 11:40:00 16.9 C 48 % 5.83 C
142 23-04-2020 11:45:00 17.1 C 47 % 5.71 C
143 23-04-2020 11:50:00 17.2 C 47 % 5.8 C
144 23-04-2020 11:55:00 17.3 C 45 % 5.27 C
145 23-04-2020 12:00:00 17.5 C 46 % 5.76 C
146 23-04-2020 12:05:00 17.7 C 44 % 5.31 C
147 23-04-2020 12:10:00 17.7 C 44 % 5.31 C
148 23-04-2020 12:15:00 17.9 C 45 % 5.81 C
149 23-04-2020 12:20:00 18 C 44 % 5.58 C
150 23-04-2020 12:25:00 18.1 C 44 % 5.67 C
Sensor: Nr:Datum:Temp:Feuchte:Taupunkt:
Aussen-T/F 151 23-04-2020 12:30:00 18.2 C 43 % 5.43 C
152 23-04-2020 12:35:00 18.3 C 43 % 5.52 C
153 23-04-2020 12:40:00 18.3 C 43 % 5.52 C
154 23-04-2020 12:45:00 18.4 C 43 % 5.61 C
155 23-04-2020 12:50:00 18.4 C 42 % 5.27 C
156 23-04-2020 12:55:00 18.5 C 41 % 5.01 C
157 23-04-2020 13:00:00 18.7 C 38 % 4.11 C
158 23-04-2020 13:05:00 18.9 C 35 % 3.12 C
159 23-04-2020 13:10:00 19 C 36 % 3.61 C
160 23-04-2020 13:15:00 19.2 C 35 % 3.38 C
161 23-04-2020 13:20:00 19.3 C 35 % 3.47 C
162 23-04-2020 13:25:00 19.3 C 35 % 3.47 C
163 23-04-2020 13:30:00 19.4 C 36 % 3.96 C
164 23-04-2020 13:35:00 19.6 C 35 % 3.74 C
165 23-04-2020 13:40:00 19.7 C 34 % 3.41 C
166 23-04-2020 13:45:00 19.8 C 35 % 3.91 C
167 23-04-2020 13:50:00 20.1 C 33 % 3.34 C
168 23-04-2020 13:55:00 20.1 C 35 % 4.18 C
169 23-04-2020 14:00:00 20.1 C 33 % 3.34 C
170 23-04-2020 14:05:00 20.2 C 33 % 3.43 C
171 23-04-2020 14:10:00 20.3 C 33 % 3.52 C
172 23-04-2020 14:15:00 20.3 C 35 % 4.35 C
173 23-04-2020 14:20:00 20.4 C 33 % 3.6 C
174 23-04-2020 14:25:00 20.6 C 33 % 3.78 C
175 23-04-2020 14:30:00 20.8 C 33 % 3.95 C
Sensor: Nr:Datum:Temp:Feuchte:Taupunkt:
Aussen-T/F 176 23-04-2020 14:35:00 20.9 C 33 % 4.04 C
177 23-04-2020 14:40:00 21 C 32 % 3.69 C
178 23-04-2020 14:45:00 21 C 33 % 4.13 C
179 23-04-2020 14:50:00 21.1 C 33 % 4.22 C
180 23-04-2020 14:55:00 21.3 C 32 % 3.95 C
181 23-04-2020 15:00:00 21.4 C 33 % 4.48 C
182 23-04-2020 15:05:00 21.6 C 32 % 4.21 C
183 23-04-2020 15:10:00 21.7 C 31 % 3.85 C
184 23-04-2020 15:15:00 21.6 C 30 % 3.3 C
185 23-04-2020 15:20:00 21.7 C 32 % 4.3 C
186 23-04-2020 15:25:00 21.8 C 31 % 3.94 C
187 23-04-2020 15:30:00 22.1 C 31 % 4.2 C
188 23-04-2020 15:35:00 22.2 C 30 % 3.82 C
189 23-04-2020 15:40:00 22.3 C 29 % 3.42 C
190 23-04-2020 15:45:00 22.4 C 31 % 4.46 C
191 23-04-2020 15:50:00 22.6 C 30 % 4.16 C
192 23-04-2020 15:55:00 22.6 C 29 % 3.68 C
193 23-04-2020 16:00:00 22.6 C 30 % 4.16 C
194 23-04-2020 16:05:00 22.7 C 30 % 4.25 C
195 23-04-2020 16:10:00 22.7 C 30 % 4.25 C
196 23-04-2020 16:15:00 22.7 C 30 % 4.25 C
197 23-04-2020 16:20:00 22.8 C 30 % 4.34 C
198 23-04-2020 16:25:00 23.2 C 29 % 4.2 C
199 23-04-2020 16:30:00 23.5 C 28 % 3.96 C
200 23-04-2020 16:35:00 23.4 C 28 % 3.87 C
Sensor: Nr:Datum:Temp:Feuchte:Taupunkt:
Aussen-T/F 201 23-04-2020 16:40:00 23.3 C 28 % 3.78 C
202 23-04-2020 16:45:00 23.4 C 30 % 4.85 C
203 23-04-2020 16:50:00 23.9 C 29 % 4.8 C
204 23-04-2020 16:55:00 24.3 C 28 % 4.64 C
205 23-04-2020 17:00:00 24.2 C 28 % 4.55 C
206 23-04-2020 17:05:00 24.4 C 28 % 4.73 C
207 23-04-2020 17:10:00 24.2 C 28 % 4.55 C
208 23-04-2020 17:15:00 24.1 C 28 % 4.47 C
209 23-04-2020 17:20:00 24.2 C 28 % 4.55 C
210 23-04-2020 17:25:00 24.5 C 26 % 3.76 C
211 23-04-2020 17:30:00 24.7 C 27 % 4.46 C
212 23-04-2020 17:35:00 24.7 C 26 % 3.93 C
213 23-04-2020 17:40:00 24.3 C 27 % 4.12 C
214 23-04-2020 17:45:00 24.2 C 28 % 4.55 C
215 23-04-2020 17:50:00 24.2 C 28 % 4.55 C
216 23-04-2020 17:55:00 24.6 C 29 % 5.4 C
217 23-04-2020 18:00:00 24.8 C 25 % 3.45 C
218 23-04-2020 18:05:00 25.1 C 27 % 4.8 C
219 23-04-2020 18:10:00 25.3 C 25 % 3.88 C
220 23-04-2020 18:15:00 25.2 C 29 % 5.91 C
221 23-04-2020 18:20:00 25.5 C 27 % 5.14 C
222 23-04-2020 18:25:00 25.7 C 25 % 4.21 C
223 23-04-2020 18:30:00 25.8 C 25 % 4.3 C
224 23-04-2020 18:35:00 25.7 C 25 % 4.21 C
225 23-04-2020 18:40:00 25.6 C 27 % 5.23 C
Sensor: Nr:Datum:Temp:Feuchte:Taupunkt:
Aussen-T/F 226 23-04-2020 18:45:00 25.4 C 27 % 5.06 C
227 23-04-2020 18:50:00 25.3 C 27 % 4.97 C
228 23-04-2020 18:55:00 24.9 C 27 % 4.63 C
229 23-04-2020 19:00:00 24.7 C 30 % 5.97 C
230 23-04-2020 19:05:00 24.7 C 29 % 5.49 C
231 23-04-2020 19:10:00 24.8 C 26 % 4.01 C
232 23-04-2020 19:15:00 24.8 C 28 % 5.07 C
233 23-04-2020 19:20:00 24.7 C 31 % 6.45 C
234 23-04-2020 19:25:00 24.4 C 33 % 7.1 C
235 23-04-2020 19:30:00 24.2 C 36 % 8.2 C
236 23-04-2020 19:35:00 22.9 C 58 % 14.2 C
237 23-04-2020 19:40:00 20.8 C 61 % 13.01 C
238 23-04-2020 19:45:00 19 C 67 % 12.74 C
239 23-04-2020 19:50:00 17.6 C 67 % 11.4 C
240 23-04-2020 19:55:00 16.4 C 66 % 10.04 C
241 23-04-2020 20:00:00 15.7 C 66 % 9.37 C
242 23-04-2020 20:05:00 15.3 C 66 % 8.99 C
243 23-04-2020 20:10:00 15.2 C 66 % 8.9 C
244 23-04-2020 20:15:00 14.9 C 65 % 8.39 C
245 23-04-2020 20:20:00 14.8 C 66 % 8.52 C
246 23-04-2020 20:25:00 14.7 C 67 % 8.64 C
247 23-04-2020 20:30:00 14.6 C 68 % 8.77 C
248 23-04-2020 20:35:00 14.4 C 69 % 8.79 C
249 23-04-2020 20:40:00 14.3 C 70 % 8.91 C
250 23-04-2020 20:45:00 14.1 C 69 % 8.5 C
Sensor: Nr:Datum:Temp:Feuchte:Taupunkt:
Aussen-T/F 251 23-04-2020 20:50:00 13.9 C 66 % 7.66 C
252 23-04-2020 20:55:00 13.8 C 66 % 7.57 C
253 23-04-2020 21:00:00 13.6 C 65 % 7.15 C
254 23-04-2020 21:05:00 13.4 C 64 % 6.74 C
255 23-04-2020 21:10:00 13.4 C 65 % 6.96 C
256 23-04-2020 21:15:00 13.3 C 66 % 7.09 C
257 23-04-2020 21:20:00 13.2 C 65 % 6.77 C
258 23-04-2020 21:25:00 13.1 C 65 % 6.68 C
259 23-04-2020 21:30:00 12.9 C 65 % 6.49 C
260 23-04-2020 21:35:00 12.8 C 64 % 6.17 C
261 23-04-2020 21:40:00 12.7 C 65 % 6.3 C
262 23-04-2020 21:45:00 12.6 C 66 % 6.42 C
263 23-04-2020 21:50:00 12.4 C 66 % 6.23 C
264 23-04-2020 21:55:00 12.3 C 65 % 5.92 C
265 23-04-2020 22:00:00 12.2 C 67 % 6.26 C
266 23-04-2020 22:05:00 12.1 C 67 % 6.17 C
267 23-04-2020 22:10:00 11.9 C 68 % 6.19 C
268 23-04-2020 22:15:00 11.7 C 67 % 5.78 C
269 23-04-2020 22:20:00 11.7 C 68 % 6 C
270 23-04-2020 22:25:00 11.6 C 67 % 5.69 C
271 23-04-2020 22:30:00 11.4 C 68 % 5.71 C
272 23-04-2020 22:35:00 11.3 C 68 % 5.62 C
273 23-04-2020 22:40:00 11.2 C 68 % 5.52 C
274 23-04-2020 22:45:00 11.2 C 69 % 5.73 C
275 23-04-2020 22:50:00 11.1 C 68 % 5.43 C
Sensor: Nr:Datum:Temp:Feuchte:Taupunkt:
Aussen-T/F 276 23-04-2020 22:55:00 10.9 C 69 % 5.44 C
277 23-04-2020 23:00:00 10.8 C 70 % 5.56 C
278 23-04-2020 23:05:00 10.7 C 70 % 5.46 C
279 23-04-2020 23:10:00 10.6 C 70 % 5.36 C
280 23-04-2020 23:15:00 10.4 C 71 % 5.38 C
281 23-04-2020 23:20:00 10.3 C 71 % 5.28 C
282 23-04-2020 23:25:00 10.1 C 71 % 5.09 C
283 23-04-2020 23:30:00 10.1 C 72 % 5.29 C
284 23-04-2020 23:35:00 10 C 72 % 5.19 C
285 23-04-2020 23:40:00 9.8 C 72 % 5 C
286 23-04-2020 23:45:00 9.7 C 72 % 4.9 C
287 23-04-2020 23:50:00 9.7 C 72 % 4.9 C
288 23-04-2020 23:55:00 9.7 C 72 % 4.9 C
289 24-04-2020 00:00:00 9.6 C 72 % 4.81 C
290 24-04-2020 00:05:00 9.6 C 72 % 4.81 C
291 24-04-2020 00:10:00 9.6 C 73 % 5.01 C
292 24-04-2020 00:15:00 9.6 C 74 % 5.2 C
293 24-04-2020 00:20:00 9.6 C 73 % 5.01 C
294 24-04-2020 00:25:00 9.5 C 73 % 4.91 C
295 24-04-2020 00:30:00 9.4 C 74 % 5.01 C
296 24-04-2020 00:35:00 9.3 C 74 % 4.91 C
297 24-04-2020 00:40:00 9.1 C 74 % 4.72 C
298 24-04-2020 00:45:00 9 C 74 % 4.62 C
299 24-04-2020 00:50:00 8.9 C 75 % 4.72 C
300 24-04-2020 00:55:00 8.8 C 75 % 4.62 C
Sensor: Nr:Datum:Temp:Feuchte:Taupunkt:
Aussen-T/F 301 24-04-2020 01:00:00 8.8 C 76 % 4.81 C
302 24-04-2020 01:05:00 8.7 C 76 % 4.71 C
303 24-04-2020 01:10:00 8.7 C 77 % 4.9 C
304 24-04-2020 01:15:00 8.6 C 77 % 4.8 C
305 24-04-2020 01:20:00 8.6 C 77 % 4.8 C
306 24-04-2020 01:25:00 8.5 C 76 % 4.52 C
307 24-04-2020 01:30:00 8.4 C 76 % 4.42 C
308 24-04-2020 01:35:00 8.4 C 77 % 4.61 C
309 24-04-2020 01:40:00 8.4 C 78 % 4.79 C
310 24-04-2020 01:45:00 8.4 C 78 % 4.79 C
311 24-04-2020 01:50:00 8.3 C 78 % 4.7 C
312 24-04-2020 01:55:00 8.2 C 78 % 4.6 C
313 24-04-2020 02:00:00 8.2 C 78 % 4.6 C
314 24-04-2020 02:05:00 8.1 C 79 % 4.68 C
315 24-04-2020 02:10:00 7.9 C 78 % 4.31 C
316 24-04-2020 02:15:00 7.8 C 78 % 4.21 C
317 24-04-2020 02:20:00 7.7 C 79 % 4.3 C
318 24-04-2020 02:25:00 7.7 C 80 % 4.47 C
319 24-04-2020 02:30:00 7.7 C 80 % 4.47 C
320 24-04-2020 02:35:00 7.7 C 81 % 4.65 C
321 24-04-2020 02:40:00 7.6 C 80 % 4.38 C
322 24-04-2020 02:45:00 7.4 C 80 % 4.18 C
323 24-04-2020 02:50:00 7.4 C 81 % 4.36 C
324 24-04-2020 02:55:00 7.3 C 82 % 4.44 C
325 24-04-2020 03:00:00 7.3 C 82 % 4.44 C
Sensor: Nr:Datum:Temp:Feuchte:Taupunkt:
Aussen-T/F 326 24-04-2020 03:05:00 7.3 C 82 % 4.44 C
327 24-04-2020 03:10:00 7.3 C 82 % 4.44 C
328 24-04-2020 03:15:00 7.2 C 82 % 4.34 C
329 24-04-2020 03:20:00 7.1 C 82 % 4.24 C
330 24-04-2020 03:25:00 6.9 C 83 % 4.22 C
331 24-04-2020 03:30:00 6.9 C 83 % 4.22 C
332 24-04-2020 03:35:00 6.8 C 83 % 4.12 C
333 24-04-2020 03:40:00 6.8 C 84 % 4.29 C
334 24-04-2020 03:45:00 6.7 C 84 % 4.19 C
335 24-04-2020 03:50:00 6.7 C 84 % 4.19 C
336 24-04-2020 03:55:00 6.7 C 84 % 4.19 C
337 24-04-2020 04:00:00 6.7 C 84 % 4.19 C
338 24-04-2020 04:05:00 6.6 C 84 % 4.1 C
339 24-04-2020 04:10:00 6.5 C 85 % 4.17 C
340 24-04-2020 04:15:00 6.5 C 85 % 4.17 C
341 24-04-2020 04:20:00 6.4 C 85 % 4.07 C
342 24-04-2020 04:25:00 6.3 C 85 % 3.97 C
343 24-04-2020 04:30:00 6.3 C 85 % 3.97 C
344 24-04-2020 04:35:00 6.3 C 86 % 4.14 C
345 24-04-2020 04:40:00 6.5 C 86 % 4.33 C
346 24-04-2020 04:45:00 6.6 C 86 % 4.43 C
347 24-04-2020 04:50:00 6.7 C 86 % 4.53 C
348 24-04-2020 04:55:00 6.7 C 85 % 4.36 C
349 24-04-2020 05:00:00 6.7 C 85 % 4.36 C
350 24-04-2020 05:05:00 6.6 C 85 % 4.26 C
Sensor: Nr:Datum:Temp:Feuchte:Taupunkt:
Aussen-T/F 351 24-04-2020 05:10:00 6.5 C 85 % 4.17 C
352 24-04-2020 05:15:00 6.4 C 85 % 4.07 C
353 24-04-2020 05:20:00 6.3 C 86 % 4.14 C
354 24-04-2020 05:25:00 6.3 C 86 % 4.14 C
355 24-04-2020 05:30:00 6.3 C 87 % 4.3 C
356 24-04-2020 05:35:00 6.3 C 87 % 4.3 C
357 24-04-2020 05:40:00 6.4 C 87 % 4.4 C
358 24-04-2020 05:45:00 6.4 C 87 % 4.4 C
359 24-04-2020 05:50:00 6.4 C 87 % 4.4 C
360 24-04-2020 05:55:00 6.4 C 87 % 4.4 C
361 24-04-2020 06:00:00 6.4 C 87 % 4.4 C
362 24-04-2020 06:05:00 6.4 C 87 % 4.4 C
363 24-04-2020 06:10:00 6.3 C 87 % 4.3 C
364 24-04-2020 06:15:00 6.3 C 87 % 4.3 C
365 24-04-2020 06:20:00 6.3 C 87 % 4.3 C
366 24-04-2020 06:25:00 6.4 C 87 % 4.4 C
367 24-04-2020 06:30:00 6.4 C 87 % 4.4 C
368 24-04-2020 06:35:00 6.4 C 87 % 4.4 C
369 24-04-2020 06:40:00 6.3 C 87 % 4.3 C
370 24-04-2020 06:45:00 6.4 C 87 % 4.4 C
371 24-04-2020 06:50:00 6.4 C 87 % 4.4 C
372 24-04-2020 06:55:00 6.4 C 87 % 4.4 C
373 24-04-2020 07:00:00 6.4 C 87 % 4.4 C
374 24-04-2020 07:05:00 6.4 C 87 % 4.4 C
375 24-04-2020 07:10:00 6.5 C 88 % 4.66 C
Sensor: Nr:Datum:Temp:Feuchte:Taupunkt:
Aussen-T/F 376 24-04-2020 07:15:00 6.5 C 88 % 4.66 C
377 24-04-2020 07:20:00 6.6 C 88 % 4.76 C
378 24-04-2020 07:25:00 6.6 C 88 % 4.76 C
379 24-04-2020 07:30:00 6.6 C 88 % 4.76 C
380 24-04-2020 07:35:00 6.6 C 88 % 4.76 C
381 24-04-2020 07:40:00 6.6 C 88 % 4.76 C
382 24-04-2020 07:45:00 6.7 C 88 % 4.86 C
383 24-04-2020 07:50:00 6.8 C 88 % 4.96 C
384 24-04-2020 07:55:00 6.8 C 88 % 4.96 C
385 24-04-2020 08:00:00 6.9 C 88 % 5.05 C
386 24-04-2020 08:05:00 6.9 C 88 % 5.05 C
387 24-04-2020 08:10:00 7.1 C 88 % 5.25 C
388 24-04-2020 08:15:00 7.2 C 88 % 5.35 C
389 24-04-2020 08:20:00 7.3 C 87 % 5.28 C
390 24-04-2020 08:25:00 7.6 C 87 % 5.58 C
391 24-04-2020 08:30:00 7.8 C 86 % 5.61 C
392 24-04-2020 08:35:00 8.1 C 85 % 5.73 C
393 24-04-2020 08:40:00 8.3 C 85 % 5.93 C
394 24-04-2020 08:45:00 8.7 C 85 % 6.32 C
395 24-04-2020 08:50:00 8.9 C 83 % 6.17 C
396 24-04-2020 08:55:00 9.2 C 83 % 6.47 C
397 24-04-2020 09:00:00 9.4 C 82 % 6.49 C
398 24-04-2020 09:05:00 9.6 C 80 % 6.32 C
399 24-04-2020 09:10:00 9.9 C 79 % 6.43 C
400 24-04-2020 09:15:00 10.1 C 78 % 6.44 C
Sensor: Nr:Datum:Temp:Feuchte:Taupunkt:
Aussen-T/F 401 24-04-2020 09:20:00 10.3 C 79 % 6.82 C
402 24-04-2020 09:25:00 10.6 C 78 % 6.93 C
403 24-04-2020 09:30:00 10.8 C 77 % 6.94 C
404 24-04-2020 09:35:00 11.1 C 77 % 7.23 C
405 24-04-2020 09:40:00 11.3 C 76 % 7.23 C
406 24-04-2020 09:45:00 11.4 C 75 % 7.13 C
407 24-04-2020 09:50:00 11.7 C 75 % 7.42 C
408 24-04-2020 09:55:00 11.8 C 75 % 7.52 C
409 24-04-2020 10:00:00 12.1 C 74 % 7.61 C
410 24-04-2020 10:05:00 12.2 C 73 % 7.51 C
411 24-04-2020 10:10:00 12.3 C 73 % 7.61 C
412 24-04-2020 10:15:00 12.3 C 72 % 7.4 C
413 24-04-2020 10:20:00 12.5 C 72 % 7.6 C
414 24-04-2020 10:25:00 12.7 C 72 % 7.79 C
415 24-04-2020 10:30:00 12.9 C 72 % 7.98 C
416 24-04-2020 10:35:00 13.2 C 71 % 8.06 C
417 24-04-2020 10:40:00 13.6 C 71 % 8.45 C
418 24-04-2020 10:45:00 13.8 C 69 % 8.22 C
419 24-04-2020 10:50:00 13.9 C 70 % 8.53 C
420 24-04-2020 10:55:00 14.2 C 68 % 8.39 C
421 24-04-2020 11:00:00 14.3 C 67 % 8.26 C
422 24-04-2020 11:05:00 14.6 C 67 % 8.55 C
423 24-04-2020 11:10:00 14.7 C 66 % 8.42 C
424 24-04-2020 11:15:00 14.8 C 67 % 8.74 C
425 24-04-2020 11:20:00 15 C 65 % 8.48 C
Sensor: Nr:Datum:Temp:Feuchte:Taupunkt:
Aussen-T/F 426 24-04-2020 11:25:00 15.2 C 65 % 8.67 C
427 24-04-2020 11:30:00 15.3 C 64 % 8.54 C
428 24-04-2020 11:35:00 15.4 C 63 % 8.4 C
429 24-04-2020 11:40:00 15.6 C 64 % 8.82 C
430 24-04-2020 11:45:00 15.7 C 63 % 8.68 C
431 24-04-2020 11:50:00 15.9 C 62 % 8.64 C
432 24-04-2020 11:55:00 16.1 C 62 % 8.82 C
433 24-04-2020 12:00:00 16.2 C 62 % 8.92 C
434 24-04-2020 12:05:00 16.4 C 63 % 9.35 C
435 24-04-2020 12:10:00 16.6 C 62 % 9.3 C
436 24-04-2020 12:15:00 16.9 C 60 % 9.09 C
437 24-04-2020 12:20:00 17.3 C 63 % 10.2 C
438 24-04-2020 12:25:00 17.7 C 58 % 9.34 C
439 24-04-2020 12:30:00 17.9 C 55 % 8.74 C
440 24-04-2020 12:35:00 18.1 C 56 % 9.19 C
441 24-04-2020 12:40:00 18.2 C 55 % 9.02 C
442 24-04-2020 12:45:00 18.3 C 51 % 8 C
443 24-04-2020 12:50:00 18.6 C 52 % 8.56 C
444 24-04-2020 12:55:00 18.8 C 49 % 7.87 C
445 24-04-2020 13:00:00 19.2 C 47 % 7.63 C
446 24-04-2020 13:05:00 19.3 C 48 % 8.03 C
447 24-04-2020 13:10:00 19.4 C 46 % 7.49 C
448 24-04-2020 13:15:00 19.7 C 44 % 7.12 C
449 24-04-2020 13:20:00 20 C 42 % 6.71 C
450 24-04-2020 13:25:00 20.1 C 39 % 5.73 C
Sensor: Nr:Datum:Temp:Feuchte:Taupunkt:
Aussen-T/F 451 24-04-2020 13:30:00 20.2 C 38 % 5.44 C
452 24-04-2020 13:35:00 20.2 C 40 % 6.18 C
453 24-04-2020 13:40:00 20.3 C 39 % 5.9 C
454 24-04-2020 13:45:00 20.5 C 38 % 5.71 C
455 24-04-2020 13:50:00 20.7 C 38 % 5.89 C
456 24-04-2020 13:55:00 20.7 C 39 % 6.26 C
457 24-04-2020 14:00:00 20.8 C 40 % 6.72 C
458 24-04-2020 14:05:00 21.1 C 41 % 7.35 C
459 24-04-2020 14:10:00 21.1 C 40 % 6.99 C
460 24-04-2020 14:15:00 21.1 C 40 % 6.99 C
461 24-04-2020 14:20:00 21.2 C 41 % 7.44 C
462 24-04-2020 14:25:00 21.4 C 41 % 7.62 C
463 24-04-2020 14:30:00 21.4 C 41 % 7.62 C
464 24-04-2020 14:35:00 21.4 C 42 % 7.97 C
465 24-04-2020 14:40:00 21.5 C 42 % 8.06 C
466 24-04-2020 14:45:00 21.6 C 42 % 8.15 C
467 24-04-2020 14:50:00 21.6 C 42 % 8.15 C
468 24-04-2020 14:55:00 21.7 C 41 % 7.88 C
469 24-04-2020 15:00:00 21.7 C 42 % 8.24 C
470 24-04-2020 15:05:00 21.8 C 40 % 7.61 C
471 24-04-2020 15:10:00 21.9 C 41 % 8.06 C
472 24-04-2020 15:15:00 21.9 C 39 % 7.33 C
473 24-04-2020 15:20:00 22 C 39 % 7.42 C
474 24-04-2020 15:25:00 21.9 C 38 % 6.95 C
475 24-04-2020 15:30:00 22 C 37 % 6.65 C
Sensor: Nr:Datum:Temp:Feuchte:Taupunkt:
Aussen-T/F 476 24-04-2020 15:35:00 22.1 C 36 % 6.34 C
477 24-04-2020 15:40:00 22.2 C 36 % 6.43 C
478 24-04-2020 15:45:00 22.3 C 36 % 6.52 C
479 24-04-2020 15:50:00 22.4 C 35 % 6.2 C
480 24-04-2020 15:55:00 22.6 C 34 % 5.96 C
481 24-04-2020 16:00:00 22.6 C 34 % 5.96 C
482 24-04-2020 16:05:00 22.5 C 35 % 6.29 C
483 24-04-2020 16:10:00 22.6 C 34 % 5.96 C
484 24-04-2020 16:15:00 22.7 C 33 % 5.61 C
485 24-04-2020 16:20:00 22.8 C 33 % 5.7 C
486 24-04-2020 16:25:00 22.8 C 31 % 4.8 C
487 24-04-2020 16:30:00 22.9 C 30 % 4.42 C
488 24-04-2020 16:35:00 23.1 C 32 % 5.52 C
489 24-04-2020 16:40:00 23.2 C 30 % 4.68 C
490 24-04-2020 16:45:00 23.1 C 29 % 4.11 C
491 24-04-2020 16:50:00 22.9 C 31 % 4.89 C
492 24-04-2020 16:55:00 22.9 C 30 % 4.42 C
493 24-04-2020 17:00:00 22.8 C 31 % 4.8 C
494 24-04-2020 17:05:00 22.6 C 31 % 4.63 C
495 24-04-2020 17:10:00 22.6 C 32 % 5.08 C
496 24-04-2020 17:15:00 22.6 C 30 % 4.16 C
497 24-04-2020 17:20:00 22.6 C 29 % 3.68 C
498 24-04-2020 17:25:00 22.7 C 29 % 3.77 C
499 24-04-2020 17:30:00 22.8 C 29 % 3.85 C
500 24-04-2020 17:35:00 22.7 C 28 % 3.27 C
Sensor: Nr:Datum:Temp:Feuchte:Taupunkt:
Aussen-T/F 501 24-04-2020 17:40:00 22.4 C 29 % 3.51 C
502 24-04-2020 17:45:00 22.2 C 30 % 3.82 C
503 24-04-2020 17:50:00 22.2 C 30 % 3.82 C
504 24-04-2020 17:55:00 22.4 C 30 % 3.99 C
505 24-04-2020 18:00:00 22.4 C 31 % 4.46 C
506 24-04-2020 18:05:00 22.1 C 31 % 4.2 C
507 24-04-2020 18:10:00 21.9 C 31 % 4.02 C
508 24-04-2020 18:15:00 21.7 C 33 % 4.74 C
509 24-04-2020 18:20:00 21.4 C 34 % 4.91 C
510 24-04-2020 18:25:00 21.4 C 35 % 5.32 C
511 24-04-2020 18:30:00 21.6 C 37 % 6.3 C
512 24-04-2020 18:35:00 21.6 C 37 % 6.3 C
513 24-04-2020 18:40:00 21.4 C 38 % 6.51 C
514 24-04-2020 18:45:00 21.3 C 38 % 6.42 C
515 24-04-2020 18:50:00 21.2 C 39 % 6.71 C
516 24-04-2020 18:55:00 21.1 C 39 % 6.62 C
517 24-04-2020 19:00:00 21.1 C 39 % 6.62 C
518 24-04-2020 19:05:00 20.9 C 39 % 6.44 C
519 24-04-2020 19:10:00 20.8 C 39 % 6.35 C
520 24-04-2020 19:15:00 20.7 C 40 % 6.63 C
521 24-04-2020 19:20:00 20.5 C 40 % 6.45 C
522 24-04-2020 19:25:00 20.4 C 41 % 6.72 C
523 24-04-2020 19:30:00 20.3 C 41 % 6.63 C
524 24-04-2020 19:35:00 20.1 C 42 % 6.8 C
525 24-04-2020 19:40:00 19.9 C 43 % 6.96 C
Sensor: Nr:Datum:Temp:Feuchte:Taupunkt:
Aussen-T/F 526 24-04-2020 19:45:00 19.8 C 43 % 6.87 C
527 24-04-2020 19:50:00 19.7 C 43 % 6.78 C
528 24-04-2020 19:55:00 19.6 C 44 % 7.03 C
529 24-04-2020 20:00:00 19.4 C 45 % 7.17 C
530 24-04-2020 20:05:00 19.2 C 45 % 6.99 C
531 24-04-2020 20:10:00 19.1 C 44 % 6.57 C
532 24-04-2020 20:15:00 18.9 C 46 % 7.04 C
533 24-04-2020 20:20:00 18.7 C 47 % 7.17 C
534 24-04-2020 20:25:00 18.3 C 47 % 6.8 C
535 24-04-2020 20:30:00 18.2 C 48 % 7.02 C
536 24-04-2020 20:35:00 17.8 C 50 % 7.25 C
537 24-04-2020 20:40:00 17.5 C 50 % 6.97 C
538 24-04-2020 20:45:00 17.2 C 50 % 6.7 C
539 24-04-2020 20:50:00 16.9 C 51 % 6.71 C
540 24-04-2020 20:55:00 16.7 C 52 % 6.81 C
541 24-04-2020 21:00:00 16.4 C 52 % 6.53 C
542 24-04-2020 21:05:00 16.3 C 53 % 6.71 C
543 24-04-2020 21:10:00 16.2 C 53 % 6.62 C
544 24-04-2020 21:15:00 16 C 52 % 6.16 C
545 24-04-2020 21:20:00 15.8 C 53 % 6.25 C
546 24-04-2020 21:25:00 15.7 C 54 % 6.43 C
547 24-04-2020 21:30:00 15.6 C 53 % 6.06 C
548 24-04-2020 21:35:00 15.6 C 54 % 6.34 C
549 24-04-2020 21:40:00 15.7 C 54 % 6.43 C
550 24-04-2020 21:45:00 15.6 C 53 % 6.06 C
Sensor: Nr:Datum:Temp:Feuchte:Taupunkt:
Aussen-T/F 551 24-04-2020 21:50:00 15.5 C 55 % 6.51 C
552 24-04-2020 21:55:00 15.3 C 55 % 6.32 C
553 24-04-2020 22:00:00 15.2 C 55 % 6.23 C
554 24-04-2020 22:05:00 15.1 C 55 % 6.14 C
555 24-04-2020 22:10:00 15 C 56 % 6.3 C
556 24-04-2020 22:15:00 14.8 C 56 % 6.12 C
557 24-04-2020 22:20:00 14.7 C 57 % 6.28 C
558 24-04-2020 22:25:00 14.6 C 54 % 5.41 C
559 24-04-2020 22:30:00 14.6 C 56 % 5.93 C
560 24-04-2020 22:35:00 14.6 C 55 % 5.67 C
561 24-04-2020 22:40:00 14.6 C 56 % 5.93 C
562 24-04-2020 22:45:00 14.4 C 56 % 5.74 C
563 24-04-2020 22:50:00 14.2 C 56 % 5.56 C
564 24-04-2020 22:55:00 13.9 C 57 % 5.53 C
565 24-04-2020 23:00:00 13.7 C 56 % 5.09 C
566 24-04-2020 23:05:00 13.5 C 57 % 5.16 C
567 24-04-2020 23:10:00 13.3 C 53 % 3.93 C
568 24-04-2020 23:15:00 13.3 C 56 % 4.72 C
569 24-04-2020 23:20:00 13.2 C 52 % 3.57 C
570 24-04-2020 23:25:00 13.1 C 53 % 3.75 C
571 24-04-2020 23:30:00 12.9 C 52 % 3.29 C
572 24-04-2020 23:35:00 12.8 C 50 % 2.65 C
573 24-04-2020 23:40:00 12.9 C 51 % 3.02 C
574 24-04-2020 23:45:00 12.9 C 51 % 3.02 C
575 24-04-2020 23:50:00 12.9 C 53 % 3.56 C
Sensor: Nr:Datum:Temp:Feuchte:Taupunkt:
Aussen-T/F 576 24-04-2020 23:55:00 12.8 C 50 % 2.65 C

Legende:
   Min
   Max


Maximal/Minimal-Werte vom 23.04.2020 - 24.04.2020

Sensor Min Max Avg
Temp
(Aussen-T/F)
5.9 °C
23-04-2020  07:20:00
25.8 °C
23-04-2020  18:30:00
14.06 °C
Feuchte
(Aussen-T/F)
25 %
23-04-2020  18:00:00
88 %
24-04-2020  07:10:00
59.81 %
Taupunkt
(Aussen-T/F)
2.65 C
24-04-2020  23:35:00
14.2 C
23-04-2020  19:35:00
5.31 C

Die Daten stammen von einer Davis Vantage Pro 2 Wetter-Station und werden unter Linux mit der Software wview2wettercgi und aufbereitet. Alle Angaben erfolgen ohne Gewähr für ihre Vollständigkeit oder Richtigkeit.
Kontakt: Rainer Krienke krienke@uni-koblenz.de . Meine Webseiten an der Uni Koblenz oder privat.
Version: $Revision: 0.78 $